Regional Weather Roundup
Issued by NWS

Home | Current Version | Previous Version | Text Only | Print | Product List | Glossary Off
Versions: 1 2 3 4 5 6 7 8 9 10 11 12 13 14 15 16 17 18 19 20 21 22 23 24 25 26 27 28 29 30 31 32 33 34 35 36 37 38 39 40 41 42 43 44 45 46 47 48 49 50

548
ASUS43 KIND 301359
RWRIN

WEATHER ROUNDUP FOR INDIANA
NATIONAL WEATHER SERVICE INDIANAPOLIS IN
1000 AM EDT FRI SEP 30 2016

NOTE: "FAIR" INDICATES FEW OR NO CLOUDS BELOW 12,000 FEET WITH NO
SIGNIFICANT WEATHER AND/OR OBSTRUCTIONS TO VISIBILITY.

* - STATION DOES NOT REPORT WEATHER SUCH AS PRECIPITATION OR FOG.

+ - STATION NOT QUALITY CONTROLLED BY THE NATIONAL WEATHER SERVICE.
    USE DATA WITH CAUTION...ESPECIALLY DEWPOINT AND RELATIVE
    HUMIDITY OBSERVATIONS.

INZ001>003-010>013-019-020-301500-
NORTHWEST INDIANA

CITY           SKY/WX    TMP DP  RH WIND       PRES   REMARKS
GARY /AIRPORT/ CLOUDY    63  61  94 SE10G23   30.12

$$

LMZ046-743>745-301500-
SOUTHERN LAKE MICHIGAN

STATION/POSITION TIME  TEMP    WIND        PRES    WAVE
                       AIR SEA DIR/SP/G            HT
                 (UTC) (F)     (DEG/KT/KT) (MB)    (FT)
BURNS HARBOR     1340   62      40/ 20/ 25 1020.0R
MICHIGAN CITY    1330   60      10/ 21/ 23   N/A
5NW MICH CITY    1350   61 64   40/ 17/ 23   N/A     6

$$

INZ004-005-014>016-021>024-301500-
NORTH CENTRAL INDIANA

CITY           SKY/WX    TMP DP  RH WIND       PRES   REMARKS
ELKHART        CLOUDY    61  59  94 NE9       30.12R
GOSHEN         CLOUDY    61  58  90 NE6       30.11R
SOUTH BEND     CLOUDY    60  59  96 NE14      30.12S

$$

INZ006>009-017-018-025>027-301500-
NORTHEAST INDIANA

CITY           SKY/WX    TMP DP  RH WIND       PRES   REMARKS
ANGOLA *+        N/A     61  50  67 E8        30.12R
FORT WAYNE     LGT RAIN  60  58  92 NE14      30.08S FOG
KENDALLVILLE + CLOUDY    60  59  96 E9        30.12R FOG

$$

INZ028-029-035-036-043>045-051>053-301500-
WEST CENTRAL INDIANA

CITY           SKY/WX    TMP DP  RH WIND       PRES   REMARKS
CRAWFORDSVL +  DRIZZLE   58  58 100 CALM      30.05S
LAFAYETTE      NOT AVBL
TERRE HAUTE    CLOUDY    60  59  96 N7        30.04S

$$

INZ030>032-037>040-046>048-054>057-064-065-301500-
CENTRAL INDIANA

CITY           SKY/WX    TMP DP  RH WIND       PRES   REMARKS
ANDERSON       CLOUDY    59  59 100 CALM      30.04S FOG
COLUMBUS       PTSUNNY   57  57 100 NE5       30.04R
INDIANAPOLIS   PTSUNNY   61  57  87 NE7       30.04R
-EAGLE CREEK   CLOUDY    61  58  90 N5        30.03S
KOKOMO *+      LGT RAIN  61  59  93 NE13      30.06S FOG
MT COMFORT *+  CLOUDY    59  57  94 CALM      30.05R
SHELBYVILLE    LGT RAIN  60  56  86 CALM      30.03R

$$

INZ033-034-041-042-049-050-058-059-301500-
EAST CENTRAL INDIANA

CITY           SKY/WX    TMP DP  RH WIND       PRES   REMARKS
MUNCIE         LGT RAIN  61  59  93 N6        30.05R FOG

$$

INZ060-061-067>069-081>083-085>088-301500-
SOUTHWEST INDIANA

CITY           SKY/WX    TMP DP  RH WIND       PRES   REMARKS
EVANSVILLE     CLOUDY    62  58  86 N6        30.03R
HUNTINGBURG *+   N/A     55  54  94 SE6       30.03S

$$

INZ062-063-066-070>080-084-089>092-301500-
SOUTH CENTRAL AND SOUTHEAST INDIANA

CITY           SKY/WX    TMP DP  RH WIND       PRES   REMARKS
BLOOMINGTON    CLOUDY    60  55  83 NE7       30.03S
MADISON *+     CLOUDY    57  55  94 CALM      30.05S
SEYMOUR +      CLOUDY    59  57  94 CALM      30.03S

$$





USA.gov is the U.S. government's official web portal to all federal, state and local government web resources and services.